Location: Newark
(48.6461°N, 4.3644°W)
Time: 01:00:17
(UTC+00:00)

A-11 Canister half - Pass Details

Date: 05 February 2020
Orbit: 1517 x 1683 km, 47.2° (Epoch: 20 February)

Event Time Altitude Azimuth Distance (km) Brightness Sun altitude
Rises 20:08:59 0° 215° (SW) 4,829 11.9 -27.9°
Reaches altitude 10° 20:12:22 10° 208° (SSW) 3,822 11.3 -28.5°
Enters shadow 20:20:29 40° 152° (SSE) 2,167 9.4 -29.8°
